Location: Banksville Park
(38.5557°N, 75.1182°W)
Time: 12:42:08
(UTC+00:00)

Meteor 2-5 Rocket - Pass Details

Date: 19 September 2020
Orbit: 833 x 912 km, 81.2° (Epoch: 24 October)

Event Time Altitude Azimuth Distance (km) Brightness Sun altitude
Rises 01:30:57 0° 351° (N) 3,419 7.3 -28.6°
Reaches altitude 10° 01:33:22 10° 353° (N) 2,489 6.5 -29.0°
Enters shadow 01:37:57 60° 5° (N) 984 4.0 -29.8°
